QPF
0.00 0.00 0.00 0.00 0.00 0.00 0.00 0.00 0.00 0.00 0.01 0.01 0.03 0.03 0.02 0.00 0.00 0.00 0.00 0.00 0.01 0.01 0.01 0.01 0.00 0.01 0.02 0.02 0.03 0.04 0.03 0.03 0.01 0.01 0.00 0.00 0.01 0.01 0.01 0.01 0.01 0.01 0.01 0.00
0.00 0.00 0.00 0.00 0.00 0.01 0.01 0.00 0.00 0.00 0.00 0.00 0.03 0.03 0.01 0.00 0.00 0.00 0.00 0.00 0.01 0.01 0.01 0.00 0.00 0.00 0.01 0.03 0.03 0.03 0.03 0.01 0.01 0.01 0.01 0.01 0.01 0.01 0.01 0.01 0.02 0.02 0.01 0.01
0.00 0.00 0.00 0.00 0.00 0.00 0.00 0.01 0.00 0.00 0.01 0.02 0.01 0.02 0.04 0.02 0.00 0.00 0.00 0.00 0.01 0.01 0.01 0.00 0.00 0.02 0.03 0.03 0.02 0.02 0.02 0.01 0.01 0.01 0.01 0.01 0.01 0.01 0.01 0.02 0.02 0.02 0.01 0.01
0.00 0.00 0.00 0.00 0.00 0.00 0.00 0.00 0.00 0.00 0.00 0.01 0.01 0.00 0.01 0.01 0.00 0.00 0.00 0.01 0.01 0.01 0.01 0.01 0.02 0.03 0.02 0.02 0.02 0.01 0.01 0.01 0.01 0.01 0.01 0.01 0.01 0.01 0.02 0.02 0.01 0.01 0.01 0.01
0.00 0.00 0.00 0.00 0.00 0.00 0.00 0.00 0.00 0.00 0.00 0.00 0.00 0.00 0.00 0.01 0.01 0.00 0.01 0.01 0.02 0.02 0.02 0.03 0.03 0.03 0.02 0.03 0.02 0.01 0.01 0.01 0.00 0.01 0.00 0.01 0.01 0.01 0.01 0.01 0.01 0.01 0.01 0.01
0.00 0.00 0.00 0.01 0.00 0.00 0.00 0.00 0.00 0.00 0.00 0.00 0.00 0.00 0.01 0.00 0.00 0.00 0.00 0.00 0.01 0.02 0.02 0.04 0.03 0.03 0.02 0.02 0.02 0.01 0.01 0.01 0.01 0.01 0.01 0.01 0.01 0.01 0.01 0.01 0.01 0.01 0.01 0.01
0.01 0.01 0.01 0.02 0.01 0.00 0.01 0.01 0.00 0.00 0.00 0.00 0.00 0.01 0.01 0.00 0.00 0.00 0.00 0.01 0.03 0.04 0.04 0.04 0.04 0.04 0.03 0.02 0.02 0.02 0.01 0.01 0.01 0.01 0.01 0.01 0.02 0.02 0.02 0.02 0.02 0.01 0.01 0.00
0.01 0.01 0.02 0.01 0.00 0.00 0.01 0.00 0.00 0.00 0.00 0.00 0.00 0.00 0.00 0.00 0.00 0.00 0.01 0.01 0.03 0.04 0.04 0.05 0.06 0.04 0.03 0.04 0.05 0.04 0.02 0.02 0.02 0.02 0.03 0.05 0.04 0.03 0.03 0.02 0.02 0.01 0.00 0.00
0.01 0.02 0.02 0.01 0.01 0.00 0.00 0.00 0.00 0.00 0.00 0.00 0.00 0.00 0.01 0.01 0.01 0.01 0.01 0.01 0.02 0.03 0.04 0.06 0.06 0.05 0.04 0.03 0.03 0.03 0.04 0.06 0.07 0.05 0.04 0.04 0.03 0.02 0.02 0.02 0.01 0.01 0.00 0.00
0.02 0.02 0.01 0.01 0.01 0.01 0.00 0.00 0.00 0.00 0.00 0.00 0.01 0.02 0.02 0.01 0.01 0.01 0.01 0.02 0.02 0.03 0.03 0.05 0.06 0.06 0.06 0.04 0.02 0.02 0.03 0.04 0.05 0.04 0.03 0.03 0.03 0.02 0.02 0.02 0.01 0.01 0.01 0.01
0.01 0.02 0.02 0.02 0.03 0.02 0.01 0.00 0.01 0.01 0.00 0.01 0.01 0.01 0.01 0.02 0.02 0.02 0.02 0.02 0.02 0.03 0.05 0.05 0.05 0.06 0.06 0.04 0.03 0.03 0.03 0.02 0.03 0.03 0.04 0.04 0.04 0.03 0.02 0.02 0.02 0.02 0.01 0.01
0.03 0.02 0.03 0.03 0.04 0.03 0.01 0.01 0.01 0.01 0.01 0.01 0.01 0.01 0.01 0.02 0.02 0.03 0.03 0.03 0.03 0.03 0.05 0.06 0.06 0.06 0.06 0.05 0.04 0.03 0.03 0.02 0.02 0.03 0.04 0.04 0.03 0.03 0.03 0.03 0.02 0.01 0.01 0.01
0.02 0.02 0.02 0.03 0.01 0.01 0.01 0.01 0.01 0.01 0.01 0.01 0.02 0.01 0.01 0.01 0.01 0.02 0.03 0.03 0.03 0.04 0.05 0.07 0.07 0.06 0.06 0.05 0.04 0.03 0.03 0.03 0.02 0.03 0.04 0.04 0.03 0.03 0.03 0.02 0.02 0.02 0.01 0.01
0.02 0.01 0.02 0.03 0.02 0.01 0.01 0.01 0.02 0.02 0.02 0.02 0.03 0.04 0.03 0.02 0.03 0.03 0.03 0.04 0.04 0.04 0.04 0.05 0.08 0.09 0.09 0.08 0.04 0.03 0.03 0.03 0.04 0.05 0.04 0.04 0.03 0.02 0.02 0.02 0.02 0.02 0.02 0.02
0.04 0.03 0.02 0.03 0.03 0.04 0.04 0.03 0.03 0.03 0.03 0.03 0.04 0.05 0.04 0.04 0.03 0.03 0.02 0.03 0.04 0.04 0.03 0.04 0.05 0.06 0.07 0.09 0.07 0.04 0.03 0.03 0.04 0.05 0.04 0.04 0.04 0.03 0.02 0.01 0.02 0.02 0.02 0.02
0.05 0.05 0.04 0.04 0.05 0.06 0.06 0.04 0.03 0.04 0.05 0.05 0.04 0.04 0.04 0.04 0.03 0.03 0.03 0.04 0.04 0.05 0.04 0.04 0.04 0.04 0.04 0.06 0.06 0.06 0.06 0.06 0.06 0.05 0.04 0.04 0.03 0.03 0.02 0.02 0.02 0.01 0.01 0.02
0.06 0.11 0.15 0.09 0.06 0.04 0.05 0.06 0.05 0.04 0.03 0.05 0.05 0.05 0.04 0.03 0.03 0.02 0.02 0.02 0.04 0.05 0.05 0.04 0.04 0.04 0.03 0.04 0.05 0.05 0.06 0.07 0.07 0.05 0.04 0.05 0.04 0.03 0.02 0.02 0.02 0.02 0.02 0.02
0.07 0.13 0.11 0.06 0.04 0.05 0.07 0.08 0.05 0.03 0.02 0.03 0.04 0.05 0.05 0.05 0.05 0.04 0.03 0.02 0.03 0.03 0.03 0.03 0.02 0.02 0.04 0.05 0.06 0.06 0.06 0.06 0.05 0.04 0.05 0.05 0.04 0.03 0.02 0.02 0.02 0.02 0.02 0.02
0.05 0.07 0.04 0.04 0.04 0.05 0.06 0.06 0.04 0.03 0.03 0.03 0.03 0.04 0.05 0.05 0.04 0.04 0.03 0.03 0.03 0.02 0.02 0.02 0.03 0.03 0.05 0.05 0.05 0.06 0.05 0.06 0.05 0.05 0.07 0.05 0.04 0.02 0.02 0.02 0.01 0.01 0.01 0.01
0.06 0.05 0.04 0.03 0.04 0.04 0.04 0.04 0.03 0.03 0.04 0.05 0.05 0.05 0.05 0.05 0.04 0.04 0.04 0.05 0.04 0.03 0.03 0.03 0.04 0.05 0.06 0.04 0.04 0.04 0.04 0.05 0.05 0.05 0.06 0.05 0.04 0.03 0.02 0.01 0.01 0.01 0.01 0.01
0.05 0.04 0.04 0.04 0.03 0.04 0.03 0.03 0.03 0.03 0.04 0.04 0.04 0.04 0.04 0.05 0.05 0.05 0.06 0.07 0.05 0.03 0.03 0.04 0.03 0.04 0.04 0.04 0.04 0.04 0.04 0.05 0.05 0.05 0.05 0.05 0.04 0.03 0.03 0.02 0.01 0.02 0.02 0.02
0.03 0.03 0.04 0.04 0.04 0.03 0.03 0.03 0.04 0.03 0.03 0.02 0.02 0.03 0.04 0.05 0.05 0.05 0.05 0.07 0.10 0.07 0.05 0.04 0.04 0.04 0.04 0.04 0.04 0.04 0.05 0.05 0.05 0.05 0.05 0.04 0.03 0.04 0.03 0.02 0.02 0.02 0.02 0.02
0.03 0.03 0.03 0.03 0.03 0.03 0.03 0.04 0.04 0.02 0.02 0.02 0.02 0.03 0.04 0.05 0.06 0.06 0.06 0.07 0.09 0.09 0.07 0.06 0.07 0.06 0.05 0.05 0.05 0.05 0.05 0.05 0.04 0.04 0.04 0.05 0.04 0.04 0.04 0.03 0.03 0.03 0.03 0.03
0.04 0.03 0.03 0.03 0.03 0.02 0.03 0.03 0.03 0.02 0.02 0.02 0.03 0.04 0.06 0.07 0.06 0.05 0.05 0.04 0.05 0.06 0.05 0.05 0.06 0.06 0.05 0.06 0.07 0.07 0.06 0.05 0.05 0.05 0.05 0.05 0.04 0.04 0.04 0.04 0.03 0.03 0.03 0.03
0.04 0.04 0.03 0.03 0.02 0.03 0.04 0.04 0.04 0.03 0.04 0.04 0.04 0.07 0.10 0.09 0.07 0.04 0.02 0.02 0.02 0.02 0.03 0.02 0.03 0.04 0.04 0.05 0.08 0.08 0.07 0.08 0.08 0.06 0.06 0.05 0.04 0.03 0.03 0.04 0.03 0.03 0.02 0.03
0.05 0.05 0.04 0.04 0.04 0.04 0.04 0.04 0.04 0.04 0.04 0.04 0.04 0.07 0.10 0.08 0.07 0.05 0.03 0.02 0.01 0.01 0.02 0.02 0.03 0.03 0.03 0.04 0.06 0.09 0.10 0.11 0.10 0.08 0.08 0.07 0.06 0.05 0.04 0.04 0.04 0.04 0.03 0.02
0.05 0.05 0.05 0.05 0.05 0.05 0.05 0.04 0.03 0.03 0.04 0.03 0.03 0.04 0.07 0.06 0.05 0.05 0.04 0.03 0.02 0.02 0.02 0.03 0.03 0.04 0.04 0.05 0.05 0.06 0.09 0.11 0.10 0.09 0.08 0.08 0.10 0.08 0.05 0.05 0.04 0.03 0.02 0.02
MSLP
1010.01 1010.19 1010.28 1010.29 1010.23 1010.11 1009.92 1009.66 1009.33 1008.93 1008.49 1008.05 1007.63 1007.30 1007.11 1007.07 1007.21 1007.51 1007.96 1008.50 1009.08 1009.66 1010.19 1010.66 1011.06 1011.42 1011.75 1012.09 1012.46 1012.86 1013.28 1013.72 1014.14 1014.51 1014.81 1015.02 1015.14 1015.20 1015.22 1015.22 1015.24 1015.29 1015.37 1015.48
1010.67 1010.74 1010.65 1010.42 1010.09 1009.67 1009.21 1008.73 1008.25 1007.80 1007.39 1007.06 1006.81 1006.67 1006.64 1006.75 1006.98 1007.32 1007.74 1008.24 1008.76 1009.29 1009.80 1010.29 1010.75 1011.21 1011.66 1012.11 1012.58 1013.06 1013.53 1013.97 1014.37 1014.70 1014.94 1015.11 1015.22 1015.27 1015.31 1015.34 1015.40 1015.50 1015.62 1015.76
1011.27 1011.23 1010.98 1010.55 1009.97 1009.32 1008.63 1007.98 1007.41 1006.94 1006.59 1006.38 1006.30 1006.34 1006.49 1006.74 1007.06 1007.43 1007.86 1008.31 1008.79 1009.27 1009.77 1010.27 1010.79 1011.32 1011.86 1012.41 1012.95 1013.46 1013.94 1014.36 1014.70 1014.95 1015.13 1015.24 1015.30 1015.34 1015.38 1015.46 1015.56 1015.70 1015.87 1016.05
1011.68 1011.55 1011.17 1010.58 1009.84 1009.01 1008.19 1007.45 1006.84 1006.41 1006.16 1006.09 1006.19 1006.42 1006.75 1007.14 1007.55 1007.98 1008.41 1008.84 1009.28 1009.73 1010.20 1010.71 1011.25 1011.81 1012.40 1012.99 1013.55 1014.06 1014.50 1014.85 1015.11 1015.27 1015.36 1015.40 1015.41 1015.43 1015.48 1015.58 1015.73 1015.92 1016.14 1016.35
1011.81 1011.60 1011.13 1010.45 1009.62 1008.72 1007.85 1007.11 1006.54 1006.20 1006.09 1006.19 1006.49 1006.92 1007.42 1007.95 1008.47 1008.97 1009.42 1009.84 1010.24 1010.66 1011.10 1011.58 1012.10 1012.66 1013.24 1013.81 1014.34 1014.80 1015.16 1015.42 1015.58 1015.64 1015.64 1015.61 1015.57 1015.58 1015.64 1015.77 1015.96 1016.20 1016.46 1016.71
1011.60 1011.34 1010.84 1010.13 1009.29 1008.41 1007.59 1006.92 1006.47 1006.27 1006.33 1006.63 1007.13 1007.75 1008.42 1009.10 1009.73 1010.29 1010.77 1011.19 1011.57 1011.94 1012.34 1012.77 1013.24 1013.75 1014.28 1014.78 1015.24 1015.61 1015.88 1016.03 1016.08 1016.05 1015.97 1015.88 1015.82 1015.81 1015.89 1016.05 1016.29 1016.58 1016.88 1017.15
1011.11 1010.84 1010.34 1009.68 1008.91 1008.13 1007.43 1006.90 1006.61 1006.58 1006.83 1007.33 1008.01 1008.80 1009.63 1010.44 1011.16 1011.78 1012.29 1012.71 1013.07 1013.40 1013.73 1014.10 1014.50 1014.93 1015.37 1015.78 1016.13 1016.40 1016.57 1016.62 1016.59 1016.48 1016.35 1016.22 1016.15 1016.16 1016.26 1016.46 1016.74 1017.07 1017.40 1017.70
1010.46 1010.20 1009.77 1009.21 1008.56 1007.93 1007.41 1007.06 1006.95 1007.11 1007.54 1008.19 1009.02 1009.95 1010.89 1011.79 1012.58 1013.24 1013.78 1014.19 1014.52 1014.81 1015.09 1015.38 1015.70 1016.03 1016.37 1016.68 1016.93 1017.10 1017.17 1017.16 1017.06 1016.91 1016.76 1016.63 1016.58 1016.61 1016.75 1016.99 1017.30 1017.66 1018.01 1018.31
1009.83 1009.62 1009.29 1008.86 1008.38 1007.94 1007.60 1007.44 1007.50 1007.82 1008.38 1009.15 1010.07 1011.07 1012.07 1013.01 1013.82 1014.51 1015.04 1015.45 1015.76 1016.00 1016.23 1016.45 1016.69 1016.94 1017.18 1017.39 1017.56 1017.65 1017.66 1017.59 1017.47 1017.32 1017.17 1017.07 1017.05 1017.13 1017.31 1017.58 1017.92 1018.29 1018.64 1018.93
1009.38 1009.25 1009.04 1008.77 1008.48 1008.22 1008.07 1008.08 1008.28 1008.70 1009.34 1010.15 1011.09 1012.09 1013.08 1013.99 1014.80 1015.46 1015.98 1016.37 1016.66 1016.88 1017.06 1017.24 1017.41 1017.59 1017.75 1017.90 1017.99 1018.03 1018.01 1017.93 1017.81 1017.68 1017.57 1017.51 1017.54 1017.66 1017.88 1018.18 1018.53 1018.89 1019.23 1019.50
1009.23 1009.21 1009.14 1009.04 1008.92 1008.84 1008.85 1008.98 1009.26 1009.73 1010.37 1011.15 1012.03 1012.96 1013.87 1014.72 1015.47 1016.09 1016.58 1016.95 1017.22 1017.43 1017.59 1017.74 1017.87 1018.01 1018.12 1018.22 1018.27 1018.28 1018.24 1018.17 1018.07 1017.98 1017.91 1017.91 1017.98 1018.14 1018.38 1018.69 1019.03 1019.38 1019.68 1019.92
1009.43 1009.53 1009.61 1009.66 1009.70 1009.76 1009.88 1010.08 1010.40 1010.85 1011.43 1012.12 1012.89 1013.69 1014.49 1015.23 1015.90 1016.46 1016.91 1017.27 1017.54 1017.74 1017.91 1018.05 1018.17 1018.28 1018.37 1018.44 1018.47 1018.46 1018.42 1018.35 1018.28 1018.22 1018.19 1018.22 1018.33 1018.51 1018.76 1019.06 1019.38 1019.69 1019.96 1020.15
1009.89 1010.11 1010.31 1010.50 1010.67 1010.85 1011.04 1011.28 1011.59 1011.99 1012.47 1013.03 1013.66 1014.32 1014.98 1015.60 1016.18 1016.68 1017.11 1017.46 1017.74 1017.97 1018.15 1018.30 1018.43 1018.53 1018.61 1018.65 1018.66 1018.64 1018.59 1018.52 1018.46 1018.41 1018.40 1018.45 1018.57 1018.75 1018.98 1019.26 1019.55 1019.82 1020.04 1020.19
1010.46 1010.78 1011.10 1011.41 1011.68 1011.93 1012.18 1012.43 1012.71 1013.04 1013.42 1013.85 1014.34 1014.86 1015.40 1015.92 1016.42 1016.89 1017.30 1017.66 1017.97 1018.22 1018.43 1018.61 1018.74 1018.84 1018.90 1018.93 1018.91 1018.86 1018.79 1018.71 1018.63 1018.58 1018.56 1018.61 1018.71 1018.87 1019.08 1019.32 1019.57 1019.79 1019.97 1020.08
1010.98 1011.38 1011.79 1012.18 1012.54 1012.85 1013.13 1013.38 1013.64 1013.91 1014.21 1014.55 1014.93 1015.35 1015.79 1016.25 1016.71 1017.16 1017.57 1017.95 1018.29 1018.59 1018.83 1019.02 1019.17 1019.26 1019.30 1019.29 1019.24 1019.15 1019.04 1018.92 1018.81 1018.73 1018.69 1018.71 1018.78 1018.90 1019.08 1019.28 1019.48 1019.67 1019.82 1019.91
1011.30 1011.77 1012.25 1012.70 1013.11 1013.48 1013.79 1014.07 1014.32 1014.56 1014.82 1015.11 1015.43 1015.80 1016.20 1016.63 1017.08 1017.53 1017.96 1018.38 1018.75 1019.07 1019.34 1019.54 1019.68 1019.76 1019.77 1019.72 1019.62 1019.49 1019.33 1019.16 1019.01 1018.89 1018.81 1018.78 1018.82 1018.90 1019.04 1019.20 1019.37 1019.53 1019.66 1019.73
1011.39 1011.90 1012.42 1012.92 1013.38 1013.80 1014.15 1014.46 1014.74 1014.99 1015.26 1015.54 1015.86 1016.22 1016.62 1017.06 1017.52 1017.99 1018.45 1018.89 1019.28 1019.62 1019.90 1020.10 1020.22 1020.27 1020.24 1020.15 1020.01 1019.82 1019.62 1019.41 1019.21 1019.05 1018.93 1018.87 1018.87 1018.92 1019.01 1019.14 1019.29 1019.43 1019.54 1019.61
1011.31 1011.83 1012.38 1012.92 1013.42 1013.88 1014.28 1014.64 1014.96 1015.26 1015.57 1015.89 1016.24 1016.63 1017.06 1017.52 1018.00 1018.49 1018.97 1019.42 1019.82 1020.15 1020.41 1020.59 1020.69 1020.70 1020.64 1020.51 1020.32 1020.11 1019.87 1019.63 1019.41 1019.22 1019.07 1018.98 1018.95 1018.97 1019.04 1019.14 1019.27 1019.39 1019.50 1019.57
1011.19 1011.72 1012.28 1012.84 1013.37 1013.87 1014.32 1014.73 1015.11 1015.47 1015.83 1016.21 1016.61 1017.04 1017.50 1017.99 1018.49 1018.98 1019.45 1019.89 1020.26 1020.57 1020.79 1020.94 1020.99 1020.97 1020.88 1020.73 1020.52 1020.29 1020.05 1019.80 1019.58 1019.38 1019.23 1019.13 1019.08 1019.08 1019.13 1019.21 1019.31 1019.42 1019.52 1019.59
1011.22 1011.75 1012.31 1012.88 1013.43 1013.95 1014.43 1014.88 1015.31 1015.73 1016.14 1016.57 1017.01 1017.47 1017.95 1018.44 1018.93 1019.40 1019.84 1020.22 1020.55 1020.81 1020.98 1021.08 1021.11 1021.06 1020.95 1020.79 1020.59 1020.37 1020.14 1019.92 1019.71 1019.53 1019.39 1019.29 1019.24 1019.22 1019.25 1019.31 1019.39 1019.48 1019.55 1019.61
1011.56 1012.08 1012.63 1013.18 1013.73 1014.25 1014.74 1015.21 1015.66 1016.11 1016.55 1017.00 1017.45 1017.92 1018.38 1018.85 1019.30 1019.71 1020.09 1020.41 1020.67 1020.86 1020.98 1021.04 1021.03 1020.97 1020.86 1020.71 1020.54 1020.36 1020.17 1019.99 1019.82 1019.66 1019.54 1019.45 1019.39 1019.37 1019.37 1019.40 1019.45 1019.51 1019.56 1019.60
1012.25 1012.76 1013.28 1013.80 1014.31 1014.81 1015.28 1015.74 1016.18 1016.61 1017.05 1017.48 1017.92 1018.35 1018.77 1019.18 1019.56 1019.90 1020.20 1020.44 1020.62 1020.75 1020.82 1020.84 1020.81 1020.75 1020.66 1020.54 1020.42 1020.28 1020.14 1020.01 1019.88 1019.76 1019.66 1019.57 1019.51 1019.46 1019.44 1019.44 1019.45 1019.47 1019.49 1019.50
1013.26 1013.74 1014.21 1014.68 1015.14 1015.57 1015.99 1016.40 1016.79 1017.19 1017.58 1017.96 1018.34 1018.72 1019.07 1019.41 1019.70 1019.96 1020.18 1020.34 1020.45 1020.52 1020.55 1020.55 1020.52 1020.47 1020.40 1020.33 1020.25 1020.17 1020.08 1019.98 1019.89 1019.80 1019.70 1019.61 1019.53 1019.46 1019.41 1019.37 1019.34 1019.32 1019.31 1019.30
1014.44 1014.86 1015.27 1015.66 1016.04 1016.40 1016.74 1017.07 1017.39 1017.71 1018.03 1018.35 1018.66 1018.96 1019.24 1019.49 1019.71 1019.89 1020.03 1020.13 1020.19 1020.22 1020.23 1020.22 1020.20 1020.17 1020.14 1020.10 1020.06 1020.02 1019.96 1019.90 1019.82 1019.73 1019.63 1019.53 1019.42 1019.32 1019.23 1019.16 1019.10 1019.06 1019.02 1019.00
1015.57 1015.92 1016.25 1016.56 1016.84 1017.10 1017.35 1017.59 1017.83 1018.07 1018.31 1018.55 1018.79 1019.01 1019.22 1019.40 1019.55 1019.67 1019.76 1019.82 1019.85 1019.87 1019.87 1019.87 1019.86 1019.86 1019.85 1019.85 1019.83 1019.81 1019.77 1019.71 1019.63 1019.52 1019.41 1019.27 1019.14 1019.01 1018.90 1018.80 1018.72 1018.67 1018.64 1018.62
1016.45 1016.72 1016.97 1017.18 1017.36 1017.53 1017.69 1017.85 1018.00 1018.17 1018.34 1018.51 1018.69 1018.85 1019.00 1019.13 1019.24 1019.32 1019.38 1019.42 1019.45 1019.47 1019.48 1019.49 1019.51 1019.52 1019.54 1019.54 1019.53 1019.51 1019.46 1019.38 1019.27 1019.14 1018.99 1018.83 1018.67 1018.52 1018.39 1018.29 1018.22 1018.18 1018.17 1018.19
1016.93 1017.12 1017.28 1017.41 1017.51 1017.60 1017.69 1017.78 1017.87 1017.98 1018.10 1018.23 1018.36 1018.48 1018.59 1018.70 1018.78 1018.85 1018.90 1018.94 1018.97 1019.00 1019.03 1019.06 1019.09 1019.11 1019.13 1019.13 1019.11 1019.06 1018.98 1018.87 1018.72 1018.56 1018.37 1018.19 1018.01 1017.86 1017.74 1017.65 1017.61 1017.61 1017.65 1017.73
Thickness
5802 5817 5823 5820 5822 5827 5826 5826 5819 5821 5825 5832 5836 5839 5841 5847 5850 5847 5845 5844 5842 5840 5838 5835 5832 5828 5824 5820 5817 5812 5806 5800 5795 5792 5788 5783 5779 5776 5773 5770 5767 5764 5761 5758
5785 5806 5811 5813 5821 5825 5826 5830 5828 5827 5826 5845 5842 5838 5837 5839 5840 5839 5838 5838 5838 5837 5834 5831 5828 5825 5822 5818 5815 5810 5804 5799 5795 5791 5786 5781 5778 5774 5770 5767 5764 5761 5757 5754
5768 5791 5795 5790 5812 5819 5822 5830 5828 5816 5825 5839 5831 5827 5826 5831 5834 5834 5832 5832 5833 5832 5831 5829 5827 5824 5819 5816 5812 5807 5802 5798 5793 5789 5783 5779 5776 5771 5767 5764 5761 5757 5753 5749
5761 5768 5753 5792 5828 5829 5822 5826 5834 5833 5833 5833 5829 5827 5828 5830 5828 5830 5830 5828 5828 5829 5827 5827 5825 5821 5817 5813 5808 5803 5798 5794 5791 5787 5781 5777 5773 5768 5765 5761 5757 5753 5749 5745
5751 5752 5763 5791 5811 5817 5811 5808 5826 5826 5828 5830 5833 5827 5821 5826 5828 5828 5827 5827 5826 5827 5825 5823 5820 5817 5812 5807 5803 5798 5795 5791 5788 5784 5778 5773 5768 5765 5762 5757 5753 5749 5745 5741
5743 5739 5741 5775 5807 5821 5811 5791 5818 5821 5818 5819 5819 5802 5803 5819 5822 5822 5822 5821 5820 5820 5819 5815 5814 5811 5805 5800 5796 5793 5791 5788 5785 5781 5775 5770 5765 5761 5758 5754 5749 5745 5741 5738
5733 5736 5749 5779 5799 5804 5774 5776 5805 5810 5810 5809 5803 5801 5806 5813 5813 5813 5813 5813 5814 5812 5809 5807 5807 5803 5797 5794 5790 5790 5788 5784 5781 5777 5772 5767 5762 5757 5753 5749 5745 5741 5736 5733
5729 5727 5736 5776 5781 5771 5773 5791 5797 5799 5801 5799 5799 5802 5802 5801 5801 5801 5801 5802 5803 5800 5799 5799 5799 5795 5789 5786 5786 5785 5782 5778 5775 5772 5769 5764 5757 5752 5748 5744 5739 5735 5731 5727
5733 5735 5753 5767 5768 5775 5782 5781 5785 5788 5792 5791 5789 5788 5789 5789 5790 5791 5791 5791 5792 5790 5788 5789 5789 5787 5781 5780 5780 5777 5773 5770 5767 5765 5762 5757 5752 5746 5742 5738 5734 5731 5727 5722
5727 5735 5748 5756 5761 5767 5772 5773 5778 5781 5782 5783 5779 5779 5778 5778 5778 5780 5781 5781 5782 5780 5778 5777 5778 5778 5776 5774 5773 5769 5765 5762 5760 5756 5753 5750 5746 5743 5738 5734 5731 5728 5724 5720
5719 5728 5736 5743 5751 5754 5761 5766 5768 5771 5772 5772 5771 5768 5768 5767 5767 5769 5770 5771 5771 5769 5768 5767 5768 5767 5767 5766 5764 5760 5756 5754 5752 5748 5745 5742 5738 5736 5734 5730 5728 5724 5721 5718
5708 5724 5727 5727 5740 5747 5749 5752 5755 5756 5758 5762 5763 5760 5759 5758 5759 5759 5759 5760 5759 5759 5758 5758 5758 5757 5757 5756 5754 5750 5746 5744 5744 5741 5737 5734 5730 5725 5723 5722 5719 5717 5714 5711
5713 5723 5725 5728 5732 5739 5740 5743 5746 5747 5748 5749 5751 5752 5750 5749 5749 5749 5749 5749 5748 5748 5748 5749 5748 5747 5747 5747 5744 5741 5739 5737 5736 5734 5731 5726 5724 5720 5715 5710 5708 5707 5705 5702
5710 5713 5712 5718 5722 5729 5732 5734 5737 5738 5739 5740 5740 5741 5740 5739 5739 5738 5738 5739 5740 5740 5739 5739 5738 5738 5739 5738 5736 5733 5731 5730 5728 5725 5724 5721 5718 5716 5712 5708 5702 5699 5696 5693
5701 5705 5707 5713 5716 5720 5722 5724 5724 5724 5726 5727 5728 5728 5728 5728 5727 5728 5729 5730 5730 5730 5730 5730 5729 5729 5730 5728 5726 5724 5723 5722 5720 5719 5717 5715 5713 5710 5707 5703 5699 5696 5690 5683
5691 5696 5699 5701 5704 5707 5710 5712 5711 5712 5715 5716 5716 5717 5718 5718 5718 5719 5719 5720 5719 5719 5719 5720 5720 5721 5722 5720 5718 5716 5715 5713 5711 5711 5710 5708 5705 5703 5700 5697 5694 5691 5686 5681
5679 5681 5686 5689 5693 5697 5700 5702 5702 5704 5705 5705 5706 5707 5708 5708 5707 5707 5708 5710 5710 5711 5711 5711 5711 5713 5713 5713 5710 5709 5708 5706 5702 5703 5702 5700 5698 5696 5694 5692 5688 5686 5682 5679
5677 5679 5683 5685 5686 5688 5690 5692 5694 5695 5695 5697 5698 5698 5697 5696 5696 5697 5699 5700 5701 5702 5703 5704 5704 5705 5705 5704 5703 5702 5700 5699 5695 5694 5693 5692 5690 5689 5688 5685 5682 5679 5675 5670
5671 5673 5676 5678 5679 5681 5682 5683 5684 5686 5686 5688 5688 5688 5688 5688 5688 5689 5691 5691 5691 5691 5693 5696 5694 5696 5696 5696 5694 5694 5693 5692 5689 5687 5686 5684 5682 5682 5679 5677 5675 5673 5669 5665
5662 5665 5668 5669 5671 5672 5673 5674 5676 5676 5677 5678 5679 5679 5679 5680 5681 5681 5681 5682 5683 5685 5687 5687 5687 5687 5688 5688 5686 5687 5686 5684 5682 5679 5678 5676 5675 5673 5672 5670 5668 5667 5663 5659
5653 5656 5659 5660 5661 5663 5665 5666 5666 5667 5668 5669 5669 5670 5670 5671 5673 5673 5672 5672 5675 5677 5678 5676 5678 5679 5680 5679 5677 5679 5678 5676 5674 5672 5671 5669 5667 5666 5663 5661 5660 5659 5656 5653
5645 5647 5650 5651 5653 5654 5657 5659 5659 5659 5659 5660 5662 5663 5663 5663 5664 5664 5665 5666 5668 5667 5669 5669 5671 5670 5671 5669 5671 5671 5671 5669 5667 5666 5664 5662 5660 5658 5656 5654 5653 5651 5649 5647
5637 5640 5642 5643 5645 5646 5649 5651 5652 5652 5652 5653 5654 5655 5656 5657 5657 5656 5656 5660 5662 5660 5661 5662 5662 5660 5659 5661 5663 5662 5662 5661 5660 5659 5657 5655 5654 5652 5650 5649 5647 5645 5642 5640
5631 5633 5635 5638 5640 5639 5640 5642 5644 5645 5647 5648 5650 5651 5651 5650 5651 5653 5654 5653 5653 5652 5654 5652 5651 5651 5649 5653 5654 5654 5653 5652 5651 5652 5650 5649 5647 5646 5644 5642 5640 5638 5636 5633
5626 5628 5630 5631 5632 5633 5634 5637 5638 5640 5641 5643 5645 5647 5648 5647 5647 5647 5648 5648 5646 5645 5646 5644 5642 5641 5643 5646 5647 5646 5645 5644 5643 5643 5642 5641 5640 5639 5638 5636 5633 5631 5628 5626
5620 5623 5625 5627 5628 5629 5632 5633 5634 5636 5637 5637 5639 5641 5642 5643 5643 5642 5641 5641 5640 5638 5639 5638 5636 5634 5637 5639 5640 5639 5638 5637 5635 5633 5633 5632 5632 5632 5630 5628 5626 5623 5621 5618
5616 5618 5619 5622 5624 5626 5628 5628 5629 5630 5631 5631 5632 5634 5635 5635 5635 5634 5634 5633 5634 5634 5634 5634 5634 5633 5633 5634 5634 5633 5631 5630 5628 5625 5624 5623 5622 5622 5622 5620 5618 5615 5613 5611